Simultaneous Nadir Overpasses (SNOs) Predictions

Prediction of SNOs between LANDSAT-8 and METOP-B Satellite Orbit:

Table of predicted SNOs for the next 14.0 days since TLE Epoch: 9/3/2021
Index Date (LANDSAT-8) Time (LANDSAT-8) Lat,Lon (LANDSAT-8) SZA (LANDSAT-8 ) Date (METOP-B) Time (METOP-B) Lat,Lon (METOP-B) SZA (METOP-B ) Distance(km) Time Diff (sec)
1 09/04/2021 09:35:16 -81.10,-104.04 103.83 09/04/2021 09:34:22 -81.10,-104.19 103.87 2.68 54
2 09/04/2021 10:24:41 81.13, 64.06 76.25 09/04/2021 10:25:01 81.13, 63.90 76.24 2.84 20
3 09/07/2021 05:09:32 -81.11, -37.58 102.76 09/07/2021 05:08:44 -81.11, -37.59 102.78 0.25 48
4 09/07/2021 05:58:57 81.13, 130.50 77.32 09/07/2021 05:59:23 81.13, 130.47 77.33 0.48 26
5 09/10/2021 00:43:48 -81.11, 28.85 101.68 09/10/2021 00:43:06 -81.11, 29.00 101.68 2.88 42
6 09/10/2021 01:33:13 81.13,-163.10 78.40 09/10/2021 01:33:45 81.14,-162.98 78.43 2.20 32
7 09/12/2021 20:18:03 -81.13, 95.60 100.54 09/12/2021 20:17:28 -81.12, 95.58 100.56 0.72 35
8 09/12/2021 21:07:29 81.13, -96.73 79.48 09/12/2021 21:08:08 81.13, -96.82 79.49 1.52 39
9 09/15/2021 15:52:18 -81.12, 161.96 99.46 09/15/2021 15:51:49 -81.13, 162.14 99.44 3.23 29



Historial Predications of SNOs between LANDSAT-8 and METOP-B
